DELTA 1 DEB, 7190

Orbit data source: Space-Track

DELTA 1 DEB, 7190 is space debris in SSO originally from a launch on Tue, 06 Nov 1973 UTC launched from the Air Force Western Test Range (AFWTR). Debris objects in space refer to the collection of defunct objects orbiting the Earth. Examples of debris include non-operational satellites, rocket bodies, and fragments generated from explosions, collisions, or faulty payload assembly.

Loading next visibility...
Identifier
7190, 1973-086EY
Orbit
SSO
Country
Flag of USUS
Related business
Manufacturer
Unknown
Mission
Spacecraft
Bus & Motor
Unknown
Mass
Unknown
Launch date (UTC)
1973-11-06 (53 years ago)
Launch vehicle
Unknown
Launch site
Air Force Western Test Range (AFWTR)
Object type
Payload
Rocket body
Debris
Shape & HBR
Unknown shape, 0.2 m
Radar Cross Section
Medium (>0.1 m² and <1 m²)

Expand to show TLE details & history
Last TLE update: 12 hours ago

TLE from 12 hours ago
0 DELTA 1 DEB
1 07190U 73086EY  26254.48882935  .00002277  00000-0  19206-2 0  9995
2 07190 102.7339 217.2741 0220495 116.4243 245.9704 13.78858431591601
Epoch: 2026-09-11T11:43Z
TLE epoch observation values (Epoch: 2026-09-11T11:43:54.855Z)
Latitude
-0.00005°
Longitude
50.78409°
Altitude
1,039.555 km
Speed
7.298 km/s
True Right ascension
14h 29m 05s
True Declination
0° 00' 00"
Sunlit
Object was in daylight at epoch
Visualization orbit readout
Latitude
Unknown
Longitude
Unknown
Altitude
Unknown
Speed
Unknown
Apparent Right ascension
Unknown
Apparent Declination
Unknown
Sunlit
N/A
Visualization observer readout
Local Sidereal Time
15:46:37
Azimuth
Unknown
Elevation
Unknown
Doppler factor
Unknown
Orbital elements
Apogee altitude
1,127.302 km
Perigee altitude
803.46 km
Semi-major axis
7,343.518 km
Eccentricity
0.02205
Inclination
102.7339°
RAAN
217.2741°
Arg. of periapsis
116.4243°
True anomaly
243.68891°
Mean anomaly
245.9704°
Eccentric anomaly
244.82704°
Mean motion
3.44895 °/min
Orbital period
104.38 mins
BSTAR
0.0019206
Loading maneuver chart data...
Computing Atmospheric mass density...
Loading historical data...
Loading historical data...
Loading historical data...
Loading historical data...
Loading historical data...
Loading historical data...
Loading historical data...

Documentation

Showing up to 5 results
|